Theta_e
307 306 307 307 309 308 306 305 301 295 291 293 294 299 300 301 299 303 303 300 304 304 304 304 304 303 304 305 305 305 303 302 302 302 301 301 301 300
306 307 307 308 306 307 306 307 305 299 291 294 294 297 298 297 296 298 297 296 298 299 300 300 301 302 302 302 302 301 301 301 300 300 300 300 299 299
306 307 307 307 305 304 303 302 303 301 292 293 295 296 296 295 295 295 295 295 296 296 298 298 298 298 298 298 298 298 298 298 298 297 297 298 298 297
305 306 306 305 303 303 302 300 301 300 295 290 293 292 292 293 292 292 292 293 294 295 295 295 295 295 294 294 294 294 294 294 294 294 295 295 295 295
305 305 304 304 303 303 300 299 298 297 296 294 290 292 290 290 288 288 288 288 289 293 294 293 293 292 292 292 291 291 291 291 291 291 292 292 293 293
304 306 305 305 302 301 299 298 298 297 295 293 290 289 288 288 288 285 284 285 285 287 288 290 290 290 290 289 289 288 289 289 289 289 289 290 290 290
303 304 305 299 296 299 300 298 299 296 293 292 289 288 286 285 285 285 283 283 283 285 285 285 287 288 288 287 287 288 288 288 288 288 288 288 288 288
302 302 300 293 296 296 296 297 298 296 294 292 291 288 287 287 285 284 282 281 279 285 283 282 285 285 287 287 287 287 287 287 287 287 286 286 286 286
302 300 298 297 296 300 295 295 294 295 296 296 292 291 288 288 286 284 284 284 282 282 283 280 283 283 284 285 286 286 286 285 286 286 285 285 285 284
301 301 300 297 299 298 298 297 297 296 297 297 295 294 293 290 288 287 285 283 283 283 284 280 282 281 283 284 286 285 285 284 284 284 284 283 283 282
300 300 300 298 293 294 296 293 291 292 295 295 295 294 293 291 290 286 283 281 279 281 283 281 280 280 280 281 281 285 285 284 283 283 282 281 281 280
295 296 289 298 292 294 296 292 290 290 290 289 291 292 291 290 289 289 285 283 282 280 283 279 279 279 277 278 278 279 280 282 284 283 281 280 279 279
291 290 290 294 293 294 294 293 293 290 291 288 288 288 288 288 287 288 287 287 284 284 283 281 279 277 277 276 276 276 277 278 279 280 282 282 279 278
291 290 290 293 293 294 292 294 292 290 289 288 287 287 286 286 287 286 286 284 284 286 283 281 279 278 275 273 274 273 274 275 276 277 277 279 279 279
288 291 292 292 293 293 292 292 288 289 288 287 287 287 287 287 285 282 281 280 279 282 284 281 280 277 277 276 273 271 272 273 274 275 274 275 275 275
289 289 290 290 291 289 288 289 288 289 289 289 288 287 284 284 284 282 281 281 280 277 277 280 280 278 273 274 273 271 272 272 272 273 273 273 273 273
286 286 286 286 286 286 286 287 286 287 287 287 285 284 284 285 284 284 284 283 282 278 276 274 273 275 274 272 272 272 271 270 272 271 272 271 272 273
287 286 286 286 287 287 287 286 286 286 287 287 286 285 285 285 283 283 285 284 283 280 276 273 273 274 273 273 273 270 270 271 271 270 271 271 271 272
286 286 287 287 287 287 287 287 287 287 288 287 286 286 286 285 283 282 283 284 283 281 278 274 275 278 275 276 271 272 271 270 269 269 271 271 271 272
286 286 287 286 286 287 287 287 286 286 286 286 286 286 286 285 283 283 283 284 284 279 275 275 276 279 282 281 276 272 274 270 271 271 269 269 269 271
285 286 286 286 286 286 286 286 287 286 286 286 286 286 286 285 284 284 284 284 283 279 277 275 278 279 271 272 272 269 271 275 274 272 270 270 269 270
285 286 286 286 286 286 286 286 286 286 286 286 286 286 286 286 286 285 284 283 281 281 283 278 272 271 272 275 274 269 269 271 275 275 274 274 271 269
285 286 286 286 286 286 286 286 286 286 286 286 286 286 286 285 286 286 285 284 283 282 275 269 270 273 273 274 272 269 267 269 271 272 273 276 275 273
Wind_Speed
5 6 7 6 6 6 5 8 10 6 4 6 4 7 8 9 11 13 13 17 21 20 20 19 19 18 16 15 17 19 17 17 16 16 17 17 17 17
4 7 8 7 7 4 3 4 7 13 7 3 6 4 9 11 12 13 14 17 21 21 19 17 17 17 18 18 17 16 16 16 16 15 16 17 16 16
3 6 9 9 6 6 6 6 7 10 15 4 3 5 9 12 11 11 10 11 11 18 18 18 19 19 19 16 15 16 16 15 15 15 15 16 16 15
4 5 9 7 9 7 7 8 9 8 13 17 5 4 7 9 11 12 10 9 9 15 18 19 19 19 16 15 15 15 16 15 13 14 14 15 15 15
4 6 5 9 8 9 9 9 10 8 9 10 8 3 4 6 9 10 9 10 8 15 18 18 17 16 15 15 14 14 14 13 12 13 14 14 15 15
4 4 6 6 11 11 10 11 11 11 9 8 9 7 5 4 6 8 7 5 6 7 13 12 11 15 15 14 12 12 13 13 11 12 13 13 13 14
4 4 5 7 7 9 10 11 13 10 10 10 7 6 6 6 7 4 6 6 5 3 5 5 5 6 7 9 9 11 11 11 11 11 12 13 13 13
5 4 3 8 9 10 12 14 15 17 12 9 7 10 10 7 7 9 10 7 4 0 5 4 3 4 4 4 8 9 10 10 9 10 11 11 12 12
6 6 5 3 9 8 10 11 10 14 18 15 15 13 11 12 12 11 9 4 4 7 8 5 2 4 2 3 6 8 9 7 9 9 9 9 10 11
7 7 8 7 7 11 12 10 10 7 9 7 10 10 7 13 12 8 9 7 8 7 2 5 3 3 2 3 6 8 7 7 6 6 7 8 10 10
6 7 8 9 10 13 11 9 6 4 6 8 10 14 18 21 15 11 8 10 4 5 4 3 5 3 1 1 3 8 7 8 6 6 6 6 7 6
4 5 8 9 15 15 10 10 10 8 7 5 7 13 19 19 26 13 13 11 5 4 7 5 6 5 4 2 1 1 2 7 6 7 6 6 5 3
5 4 4 11 16 15 12 10 10 9 10 7 7 7 8 10 10 5 11 9 5 2 9 6 6 5 2 4 2 2 2 0 1 3 4 7 5 3
6 5 4 12 15 17 12 11 14 11 7 7 7 7 8 8 8 6 5 4 3 2 14 5 6 7 6 4 4 4 3 3 3 2 1 3 5 6
3 6 10 13 13 10 12 15 12 7 7 7 8 7 7 7 8 7 6 7 7 5 9 3 5 8 5 4 5 5 6 5 4 4 3 3 2 1
4 3 5 6 7 6 6 9 5 7 8 9 7 5 6 8 7 6 4 6 4 3 4 3 6 8 4 2 3 5 5 5 6 5 5 3 2 2
5 2 2 3 4 4 3 4 4 5 6 6 6 7 7 8 7 8 6 6 4 6 5 3 5 4 3 8 4 5 7 3 7 7 5 5 3 3
3 3 2 2 5 6 7 7 6 7 6 7 7 8 9 9 9 8 7 8 7 6 6 5 5 3 1 1 3 6 5 4 6 8 4 5 4 5
1 3 4 6 6 6 6 7 7 7 5 6 7 8 8 9 12 9 9 8 7 6 6 7 8 6 6 7 3 9 6 6 8 7 6 4 3 5
1 1 3 4 4 5 5 6 5 5 6 7 7 8 8 9 9 10 11 11 10 7 6 7 8 10 9 6 5 2 16 7 8 8 6 2 1 2
2 1 1 1 2 3 4 5 6 6 7 7 7 8 8 9 10 10 10 14 12 8 10 11 10 7 5 5 3 3 4 14 11 10 7 6 3 2
2 3 3 3 4 4 4 4 5 6 7 8 8 9 9 10 10 11 11 12 11 10 8 5 8 7 4 7 5 5 5 4 11 11 13 6 5 5
2 3 3 3 3 4 4 5 6 6 7 7 8 8 9 10 10 9 10 11 10 10 6 7 7 5 6 8 6 5 6 8 7 8 7 11 6 1
Wind_Direction
98 101 95 96 88 92 115 121 128 121 60 15 72 33 76 75 71 80 82 81 84 83 82 81 81 81 91 92 93 92 92 92 92 86 82 79 73 68
108 112 108 105 94 87 81 80 125 131 115 49 48 77 87 80 73 82 79 77 78 79 76 78 85 86 84 87 89 96 92 94 87 84 80 78 73 67
108 117 109 106 89 81 80 86 106 129 116 99 76 81 83 95 85 79 76 76 74 82 85 85 83 81 81 85 92 93 90 88 85 81 79 77 72 67
122 126 120 114 101 95 92 96 108 116 131 128 118 78 72 80 88 84 79 79 84 84 91 88 85 83 86 89 90 89 83 81 85 75 75 75 72 67
154 134 134 126 117 119 116 112 111 110 122 127 125 98 89 89 91 81 78 76 62 75 92 92 94 94 97 95 97 98 95 90 87 75 72 74 72 68
179 150 134 147 138 133 125 128 131 125 125 124 121 118 111 112 101 110 94 71 74 69 64 69 86 96 95 99 101 104 97 92 86 80 77 75 72 69
180 168 142 131 134 137 140 143 142 136 139 138 140 134 137 153 149 130 116 108 63 58 83 60 79 90 104 108 112 103 98 95 93 87 83 80 77 72
178 161 156 139 144 140 133 150 161 150 155 152 160 164 166 155 142 145 140 142 126 288 107 91 76 89 85 109 122 110 101 98 95 93 89 85 79 74
168 156 155 168 146 153 145 146 161 168 168 167 166 173 165 171 153 155 165 135 130 146 129 117 115 110 34 125 121 116 113 101 101 103 95 89 84 78
173 173 167 167 173 155 158 165 172 170 172 172 174 169 156 156 160 150 139 99 106 149 138 134 161 125 100 40 122 130 121 123 118 105 101 90 88 84
181 173 174 168 166 157 158 160 152 161 148 130 135 137 145 154 150 134 147 138 137 189 185 134 160 135 138 109 21 44 141 134 137 134 126 116 109 90
180 184 179 176 164 169 162 160 170 185 155 132 138 144 154 166 165 171 158 161 132 167 183 146 149 149 182 185 270 11 47 47 132 146 144 137 129 123
176 191 190 178 176 179 161 174 186 158 153 138 133 141 156 166 178 174 178 171 151 146 167 140 159 154 120 153 192 204 215 215 48 31 100 135 134 140
189 192 175 178 182 178 167 175 152 139 146 144 150 163 169 176 180 162 148 105 63 118 162 147 145 170 150 156 184 178 203 202 203 179 103 66 55 98
187 191 169 173 177 175 164 156 146 149 155 163 176 178 180 161 133 109 91 90 72 71 155 162 153 151 164 156 160 178 156 197 197 184 176 177 173 169
135 138 152 137 142 137 132 157 166 170 176 182 177 145 129 147 162 157 147 158 123 129 64 39 139 151 142 158 158 161 185 181 178 180 161 159 169 188
106 67 88 106 136 146 148 178 173 166 174 160 156 159 166 169 171 173 163 171 173 159 158 109 68 80 64 148 171 184 173 172 184 161 166 173 193 196
115 145 163 170 180 183 185 187 189 191 189 172 169 172 174 177 173 179 176 185 183 169 155 152 149 124 98 231 215 163 178 177 176 174 170 178 198 204
235 165 170 188 201 197 193 194 201 201 174 184 182 183 180 180 173 181 185 183 184 174 168 157 171 163 170 209 160 214 173 174 164 183 189 195 193 197
235 222 206 181 187 199 201 202 187 171 188 195 190 185 184 183 182 189 191 191 184 169 163 179 191 194 198 203 181 189 196 159 178 183 180 164 292 303
187 231 204 222 210 193 197 190 192 193 193 191 194 190 188 185 195 195 195 197 185 178 189 197 199 164 104 111 122 157 190 204 188 174 159 173 179 210
183 219 204 204 205 210 206 202 206 197 198 201 203 200 197 195 200 197 192 189 196 194 198 143 138 140 164 192 176 146 169 178 198 197 193 165 173 213
251 233 227 225 215 208 209 209 214 214 207 209 210 208 200 204 205 203 200 200 194 188 157 149 152 166 192 200 166 151 157 173 173 184 195 217 217 217